Home   Weather   Kunduz   Past weeks

Flag for Afghanistan Past Weather in Kunduz, Afghanistan — Yesterday and Last 2 Weeks

Now
70 °F

Clear.


Feels Like: 70 °F
Forecast: 65 / 94 °F
Wind: 7 mph from Northeast

Location: Termez Airport

Current Time: Sep 25, 2016 at 11:38:53 PM

Latest Report: Sep 25, 2016 at 11:00 PM


Visibility: 10 mi

Pressure: 29.80 "Hg

Humidity: 46%

Dew Point: 48 °F

Location of KunduzLocation

Past Weather in Kunduz — Graph

°F

Kunduz Temperature Yesterday

Maximum temperature yesterday: 97 °F (at 1:00 PM)
Minimum temperature yesterday: 57 °F (at 6:00 AM)
Average temperature yesterday: 79 °F

High & Low Weather Summary for the Past Weeks

 TemperatureHumidityPressure
High102 °F (Sep 22, 3:30 PM)100% (Sep 15, 10:00 AM)30.09 "Hg (Sep 15, 10:00 AM)
Low55 °F (Sep 14, 5:30 AM)9% (Sep 12, 11:30 AM)29.68 "Hg (Sep 24, 3:30 PM)
Average79 °F34%29.82 "Hg
* Reported Sep 10 9:30 PM — Sep 25 10:00 PM, Kunduz, Weather by CustomWeather, © 2016

Note: Actual official high and low records may vary slightly from our data, if they occured in-between our weather recording intervals... More about our weather records

Advertising

Kunduz Weather History for the Previous 24 Hours

Scroll right to see more
 ConditionsComfort  
Time TempWeatherWind HumidityBarometerVisibility
10:00 PM
Sun, Sep 25
73 °FClear.6 mph36%29.80 "Hg10 mi
9:30 PM77 °FClear.3 mph28%29.80 "Hg10 mi
9:00 PM77 °FClear.5 mph30%29.80 "Hg10 mi
8:30 PM77 °FClear.1 mph39%29.80 "Hg10 mi
8:00 PM79 °FClear.3 mph39%29.80 "Hg6 mi
7:30 PM79 °FClear.2 mph45%29.77 "Hg4 mi
7:00 PM82 °FClear.3 mph40%29.77 "Hg4 mi
6:30 PM82 °FClear.3 mph42%29.77 "Hg5 mi
6:00 PM88 °FClear.No wind25%29.77 "Hg10 mi
5:30 PM90 °FSunny.No wind29%29.74 "Hg10 mi
5:00 PM97 °FSunny.No wind28%29.74 "Hg10 mi
4:30 PM95 °FSunny.2 mph14%29.74 "Hg10 mi
4:00 PM97 °FSunny.2 mph12%29.74 "Hg10 mi
3:30 PM97 °FPassing clouds.3 mph10%29.74 "HgN/A
3:00 PM97 °FPassing clouds.3 mph13%29.77 "HgN/A
2:30 PM97 °FSunny.5 mph11%29.77 "Hg10 mi
2:00 PM97 °FPassing clouds.3 mph10%29.77 "HgN/A
1:30 PM97 °FSunny.2 mph11%29.77 "Hg10 mi
1:00 PM97 °FSunny.2 mph13%29.80 "Hg10 mi
12:30 PM95 °FSunny.3 mph14%29.80 "Hg10 mi
12:00 PM95 °FSunny.2 mph12%29.80 "Hg10 mi
11:30 AM93 °FSunny.2 mph14%29.80 "Hg10 mi
11:00 AM90 °FSunny.2 mph18%29.80 "Hg10 mi
10:30 AM90 °FSunny.No wind21%29.80 "Hg10 mi
10:00 AM86 °FSunny.No wind24%29.80 "Hg10 mi
9:30 AM82 °FSunny.No wind25%29.80 "Hg10 mi
9:00 AM79 °FSunny.No wind28%29.80 "Hg10 mi
8:30 AM73 °FSunny.1 mph36%29.80 "Hg10 mi
8:00 AM70 °FPassing clouds.3 mph43%29.80 "HgN/A
7:30 AM68 °FSunny.6 mph46%29.77 "Hg10 mi
7:00 AM64 °FSunny.7 mph52%29.77 "Hg10 mi
6:30 AM63 °FSunny.7 mph56%29.77 "Hg10 mi
5:00 AM61 °FClear.6 mph63%29.74 "Hg10 mi
4:30 AM61 °FClear.6 mph63%29.74 "Hg10 mi
4:00 AM63 °FClear.6 mph59%29.74 "Hg10 mi
3:30 AM63 °FClear.6 mph59%29.74 "Hg10 mi
3:00 AM63 °FClear.5 mph59%29.71 "Hg10 mi
2:30 AM64 °FClear.7 mph56%29.71 "Hg10 mi
2:00 AM64 °FClear.8 mph56%29.71 "Hg10 mi
1:30 AM64 °FPassing clouds.3 mph56%29.71 "HgN/A
1:00 AM66 °FClear.2 mph49%29.71 "Hg10 mi
12:30 AM63 °FClear.No wind59%29.71 "Hg10 mi
12:00 AM66 °FClear.5 mph49%29.71 "Hg10 mi
11:30 PM
Sat, Sep 24
68 °FClear.5 mph43%29.71 "Hg10 mi
11:00 PM70 °FClear.3 mph43%29.71 "Hg10 mi
Weather by CustomWeather, © 2016

See weather overviewHow to use our weather pages